Hourly Data Report for October 09, 2013

All times are specified in Local Standard Time (LST). Add 1 hour to adjust for Daylight Saving Time where and when it is observed.

PENTICTON A
BRITISH COLUMBIA

49°27'45.000" N
119°36'08.000" W
344.40 m
1126146
71889
YYF

Download Data

Hourly Data (October 2013)
Hourly Data Report for October 9, 2013
Temp Definition
°C
Dew Point Temp Definition
°C
Rel Hum Definition
%
Wind Dir Definition
10's deg

Wind Spd Definition
km/h
Visibility Definition
km
Stn Press Definition
kPa
Hmdx Definition


Wind Chill Definition


Weather Definition


TIME
00:00 Legend Double Dagger 5.4 -0.2 67 35 14 24.1 97.87     LegendNANA
01:00 Legend Double Dagger 2.8 -0.8 77 34 13 24.1 97.95     Clear
02:00 Legend Double Dagger 1.4 -1.3 82 33 12 24.1 97.97     LegendNANA
03:00 Legend Double Dagger 2.4 -1.2 77 35 13 24.1 97.98     LegendNANA
04:00 Legend Double Dagger 1.2 -1.7 81 34 13 24.1 97.98     Clear
05:00 Legend Double Dagger 2.5 -1.3 76 35 18 24.1 97.99     LegendNANA
06:00 Legend Double Dagger 1.0 -1.7 82 33 8 24.1 98.03     LegendNANA
07:00 Legend Double Dagger 3.4 -0.3 77 1 13 24.1 98.02     Mostly Cloudy
08:00 Legend Double Dagger 6.8 1.3 68 34 10 24.1 98.02     LegendNANA
09:00 Legend Double Dagger 7.4 2.1 69 32 7 24.1 97.93     LegendNANA
10:00 Legend Double Dagger 9.4 1.3 57 35 8 24.1 97.87     Mainly Clear
11:00 Legend Double Dagger 10.6 1.7 54 3 6 24.1 97.75     LegendNANA
12:00 Legend Double Dagger 12.0 2.2 51 2 4 24.1 97.60     LegendNANA
13:00 Legend Double Dagger 12.2 2.1 50 30 4 24.1 97.44     Mostly Cloudy
14:00 Legend Double Dagger 13.2 3.1 50 1 6 24.1 97.36     LegendNANA
15:00 Legend Double Dagger 12.9 2.8 50 34 6 24.1 97.25     LegendNANA
16:00 Legend Double Dagger 13.9 3.1 48 18 15 24.1 97.18     Mostly Cloudy
17:00 Legend Double Dagger 13.3 3.2 50 19 18 24.1 97.13     LegendNANA
18:00 Legend Double Dagger 13.1 2.7 49 18 14 24.1 97.08     LegendNANA
19:00 Legend Double Dagger 12.5 2.4 50 18 18 24.1 97.06     Mostly Cloudy
20:00 Legend Double Dagger 12.3 3.8 56 15 13 24.1 97.05     LegendNANA
21:00 Legend Double Dagger 10.4 4.6 67 32 6 24.1 97.04     LegendNANA
22:00 Legend Double Dagger 10.8 4.3 64 30 6 24.1 97.06     Mostly Cloudy
23:00 Legend Double Dagger 11.0 2.6 56 25 16 24.1 97.09     Rain Showers

Notes on Data Quality.

Legend

  • E = Estimated
  • M = Missing
  • NA = Not Available
  • ‡ = Partner data that is not subject to review by the National Climate Archives
Date modified: